Location: Córrego Montividiu
(13.2496°S, 48.8603°W)
Time: 10:55:05
(UTC+00:00)

Ariane H10 - Pass Details

Date: 11 March 2026
Orbit: 426 x 34358 km, 3.6° (Epoch: 21 April)

Event Time Altitude Azimuth Distance (km) Brightness Sun altitude
Rises 22:49:05 0° 283° (WNW) 4,390 8.2 -19.5°
Reaches altitude 10° 22:53:48 10° 303° (WNW) 2,128 5.9 -20.6°
Maximum altitude 22:56:27 17° 347° (NNW) 1,283 4.2 -21.3°
Enters shadow 22:56:40 17° 353° (N) 1,264 4.1 -21.3°
